Bullhead City, AZ

6:24 AM MST on February 22, 2018 (GMT -0700)
Laughlin-Bullhead International

Weather History for KIFP - July, 2013

Change the Weather History Date:

Thursday, July 25, 2013

  Actual Average Record
Temperature  
Mean Temperature 100 °F -  
Max Temperature 109 °F 106 °F 117 °F (1988)
Min Temperature 91 °F 85 °F 39 °F (2000)
Cooling Degree Days 35    
Growing Degree Days 50 (Base 50)    
Moisture  
Dew Point 57 °F    
Average Humidity 25    
Maximum Humidity 41    
Minimum Humidity 14    
Precipitation  
Precipitation 0.00 in - - ()
Sea Level Pressure  
Sea Level Pressure 29.81 in    
Wind  
Wind Speed 10 mph (South)    
Max Wind Speed 28 mph    
Max Gust Speed 34 mph    
Visibility 10 miles    
Events      
Averages and records for this station are not official NWS values.
T = Trace of Precipitation, MM = Missing Value Source: NWS Daily Summary

Daily Weather History Graph

Daily Weather History Graph

Search for Another Location

Airport or City:

Trip Planner

Search our weather history database for the weather conditions in past years. The results will help you decide how hot, cold, wet, or windy it might be!

Date:

Astronomy

Jul. 25, 2013 Rise Set
Actual Time 5:42 AM MST 7:46 PM MST
Civil Twilight 5:14 AM MST 8:15 PM MST
Nautical Twilight 4:39 AM MST 8:49 PM MST
Astronomical Twilight 4:02 AM MST 9:26 PM MST
Moon 9:41 PM MST (7/25) 9:06 AM MST (7/25)
Length of Visible Light 15h 01m
Length of Day
14h 04m
Waning Gibbous, 87% of the Moon is Illuminated
Jul 25
Waning Gibbous
Jul 29
Last Quarter
Aug 6
New
Aug 14
First Quarter
Aug 20
Full

Hourly Weather History & Observations

Time (MST) Temp. Heat Index Dew Point Humidity Pressure Visibility Wind Dir Wind Speed Gust Speed Precip Events Conditions
12:15 AM 100.4 °F 99.7 °F 57.2 °F 24% 29.74 in 10.0 mi SSE 12.7 mph - N/A   Clear
12:35 AM 100.4 °F 99.7 °F 57.2 °F 24% 29.74 in 10.0 mi South 11.5 mph - N/A   Clear
12:55 AM 98.6 °F 97.6 °F 57.2 °F 25% 29.75 in 10.0 mi Calm Calm - N/A   Clear
1:15 AM 98.6 °F 97.6 °F 57.2 °F 25% 29.75 in 10.0 mi Calm Calm - N/A   Clear
1:35 AM 96.8 °F 95.8 °F 57.2 °F 27% 29.75 in 10.0 mi SE 5.8 mph - N/A   Clear
1:55 AM 98.6 °F 97.6 °F 57.2 °F 25% 29.75 in 10.0 mi South 11.5 mph - N/A   Clear
2:15 AM 98.6 °F 97.6 °F 57.2 °F 25% 29.75 in 10.0 mi South 6.9 mph - N/A   Clear
2:35 AM 95.0 °F 94.4 °F 59.0 °F 30% 29.75 in 10.0 mi Calm Calm - N/A   Clear
2:55 AM 95.0 °F 93.7 °F 57.2 °F 28% 29.76 in 10.0 mi SW 3.5 mph - N/A   Clear
3:15 AM 95.0 °F 93.7 °F 57.2 °F 28% 29.76 in 10.0 mi SSW 6.9 mph - N/A   Clear
3:35 AM 95.0 °F 93.7 °F 57.2 °F 28% 29.76 in 10.0 mi SW 6.9 mph - N/A   Clear
3:55 AM 95.0 °F 93.0 °F 55.4 °F 26% 29.77 in 10.0 mi SW 4.6 mph - N/A   Clear
4:15 AM 93.2 °F 90.8 °F 53.6 °F 26% 29.77 in 10.0 mi Calm Calm - N/A   Clear
4:35 AM 93.2 °F 91.3 °F 55.4 °F 28% 29.77 in 10.0 mi Calm Calm - N/A   Clear
4:55 AM 93.2 °F 91.9 °F 57.2 °F 30% 29.78 in 10.0 mi Calm Calm - N/A   Clear
5:15 AM 91.4 °F 89.9 °F 57.2 °F 31% 29.78 in 10.0 mi Calm Calm - N/A   Clear
5:35 AM 91.4 °F 90.7 °F 59.0 °F 34% 29.79 in 10.0 mi Calm Calm - N/A   Clear
5:55 AM 91.4 °F 91.4 °F 60.8 °F 36% 29.80 in 10.0 mi South 5.8 mph - N/A   Clear
6:15 AM 91.4 °F 92.1 °F 62.6 °F 38% 29.81 in 10.0 mi South 4.6 mph - N/A   Clear
6:35 AM 91.4 °F 92.1 °F 62.6 °F 38% 29.82 in 10.0 mi Calm Calm - N/A   Clear
6:55 AM 91.4 °F 92.1 °F 62.6 °F 38% 29.83 in 10.0 mi SSW 4.6 mph - N/A   Clear
7:15 AM 91.4 °F 93.2 °F 64.4 °F 41% 29.83 in 10.0 mi SW 6.9 mph - N/A   Clear
7:35 AM 91.4 °F 93.2 °F 64.4 °F 41% 29.84 in 10.0 mi SW 6.9 mph - N/A   Clear
7:55 AM 93.2 °F 94.9 °F 64.4 °F 38% 29.85 in 10.0 mi SW 9.2 mph - N/A   Clear
8:15 AM 93.2 °F 94.1 °F 62.6 °F 36% 29.86 in 10.0 mi SW 8.1 mph - N/A   Clear
8:35 AM 95.0 °F 96.0 °F 62.6 °F 34% 29.86 in 10.0 mi SW 10.4 mph - N/A   Clear
8:55 AM 98.6 °F 99.4 °F 60.8 °F 29% 29.86 in 10.0 mi South 12.7 mph 18.4 mph N/A   Clear
9:15 AM 98.6 °F 99.4 °F 60.8 °F 29% 29.86 in 10.0 mi SW 13.8 mph - N/A   Clear
9:35 AM 98.6 °F 98.5 °F 59.0 °F 27% 29.86 in 10.0 mi South 15.0 mph - N/A   Clear
9:55 AM 98.6 °F 98.5 °F 59.0 °F 27% 29.86 in 10.0 mi SSW 12.7 mph - N/A   Clear
10:15 AM 100.4 °F 99.7 °F 57.2 °F 24% 29.86 in 10.0 mi South 13.8 mph 17.3 mph N/A   Clear
10:35 AM 102.2 °F 101.4 °F 57.2 °F 22% 29.86 in 10.0 mi South 19.6 mph - N/A   Clear
10:55 AM 100.4 °F 99.7 °F 57.2 °F 24% 29.86 in 10.0 mi SSW 15.0 mph 20.7 mph N/A   Clear
11:15 AM 102.2 °F 101.4 °F 57.2 °F 22% 29.86 in 10.0 mi SW 13.8 mph - N/A   Clear
11:35 AM 102.2 °F 101.4 °F 57.2 °F 22% 29.86 in 10.0 mi SSW 13.8 mph 23.0 mph N/A   Clear
11:55 AM 104.0 °F 103.4 °F 57.2 °F 21% 29.86 in 10.0 mi South 15.0 mph 18.4 mph N/A   Clear
12:15 PM 104.0 °F 102.9 °F 55.4 °F 20% 29.85 in 10.0 mi SSW 13.8 mph 21.9 mph N/A   Clear
12:35 PM 105.8 °F 105.5 °F 57.2 °F 20% 29.84 in 10.0 mi SSW 15.0 mph 18.4 mph N/A   Clear
12:55 PM 105.8 °F 104.9 °F 55.4 °F 19% 29.84 in 10.0 mi SSW 13.8 mph 23.0 mph N/A   Clear
1:15 PM 107.6 °F 106.8 °F 55.4 °F 18% 29.84 in 10.0 mi SSW 16.1 mph 23.0 mph N/A   Clear
1:35 PM 107.6 °F 106.1 °F 53.6 °F 17% 29.82 in 10.0 mi SSW 15.0 mph 23.0 mph N/A   Clear
1:55 PM 107.6 °F 106.1 °F 53.6 °F 17% 29.81 in 10.0 mi South 16.1 mph 23.0 mph N/A   Clear
2:15 PM 107.6 °F - 51.8 °F 16% 29.80 in 10.0 mi South 15.0 mph 25.3 mph N/A   Clear
2:35 PM 107.6 °F 106.1 °F 53.6 °F 17% 29.79 in 10.0 mi SSE 11.5 mph 18.4 mph N/A   Clear
2:55 PM 107.6 °F 106.1 °F 53.6 °F 17% 29.78 in 10.0 mi South 18.4 mph 24.2 mph N/A   Clear
3:15 PM 109.4 °F 107.9 °F 53.6 °F 16% 29.78 in 10.0 mi South 15.0 mph 24.2 mph N/A   Clear
3:35 PM 107.6 °F 106.1 °F 53.6 °F 17% 29.78 in 10.0 mi South 11.5 mph 23.0 mph N/A   Clear
3:55 PM 109.4 °F - 51.8 °F 15% 29.77 in 10.0 mi South 17.3 mph 24.2 mph N/A   Clear
4:15 PM 109.4 °F - 50.0 °F 14% 29.77 in 10.0 mi SSW 15.0 mph 21.9 mph N/A   Clear
4:35 PM 109.4 °F - 50.0 °F 14% 29.77 in 10.0 mi SSW 16.1 mph 23.0 mph N/A   Clear
4:55 PM 109.4 °F - 51.8 °F 15% 29.77 in 10.0 mi South 19.6 mph 28.8 mph N/A   Clear
5:15 PM 107.6 °F 106.1 °F 53.6 °F 17% 29.76 in 10.0 mi SSE 23.0 mph - N/A   Clear
5:35 PM 107.6 °F 106.8 °F 55.4 °F 18% 29.75 in 10.0 mi South 27.6 mph - N/A   Clear
5:55 PM 104.0 °F 103.4 °F 57.2 °F 21% 29.77 in 10.0 mi SSE 27.6 mph 34.5 mph N/A   Clear
6:15 PM 104.0 °F 103.4 °F 57.2 °F 21% 29.77 in 10.0 mi SSE 26.5 mph 33.4 mph N/A   Clear
6:35 PM 104.0 °F 103.4 °F 57.2 °F 21% 29.79 in 10.0 mi South 20.7 mph 29.9 mph N/A   Clear
6:55 PM 104.0 °F 103.4 °F 57.2 °F 21% 29.80 in 10.0 mi South 19.6 mph 26.5 mph N/A   Clear
7:15 PM 102.2 °F 101.4 °F 57.2 °F 22% 29.81 in 10.0 mi South 18.4 mph 27.6 mph N/A   Clear
7:35 PM 102.2 °F 101.4 °F 57.2 °F 22% 29.82 in 10.0 mi South 18.4 mph - N/A   Clear
7:55 PM 102.2 °F 101.4 °F 57.2 °F 22% 29.83 in 10.0 mi South 16.1 mph - N/A   Clear
8:15 PM 100.4 °F 99.7 °F 57.2 °F 24% 29.84 in 10.0 mi SSW 12.7 mph - N/A   Clear
8:35 PM 100.4 °F 99.7 °F 57.2 °F 24% 29.85 in 10.0 mi South 13.8 mph - N/A   Clear
8:55 PM 100.4 °F 100.2 °F 59.0 °F 25% 29.86 in 10.0 mi South 15.0 mph - N/A   Clear
9:15 PM 100.4 °F 100.2 °F 59.0 °F 25% 29.87 in 10.0 mi SSW 13.8 mph - N/A   Clear
9:35 PM 98.6 °F 98.5 °F 59.0 °F 27% 29.88 in 10.0 mi South 13.8 mph - N/A   Clear
9:55 PM 98.6 °F 98.5 °F 59.0 °F 27% 29.88 in 10.0 mi South 13.8 mph - N/A   Clear
10:15 PM 98.6 °F 98.5 °F 59.0 °F 27% 29.89 in 10.0 mi South 12.7 mph - N/A   Clear
10:35 PM 98.6 °F 98.5 °F 59.0 °F 27% 29.88 in 10.0 mi South 12.7 mph - N/A   Clear
10:55 PM 98.6 °F 98.5 °F 59.0 °F 27% 29.88 in 10.0 mi South 11.5 mph - N/A   Clear
11:15 PM 98.6 °F 98.5 °F 59.0 °F 27% 29.88 in 10.0 mi South 15.0 mph - N/A   Clear
11:35 PM 96.8 °F 96.2 °F 59.0 °F 28% 29.88 in 10.0 mi SSE 12.7 mph - N/A   Clear
11:55 PM 96.8 °F 96.2 °F 59.0 °F 28% 29.88 in 10.0 mi SSE 11.5 mph - N/A   Clear